This is the latest recevied weather packets stored in our database for station/object M0ADS. If no packets are shown the sender has not sent any weather packets the latest 10 day(s).
| Time | Temp. | Humidity | Pressure | Rain* | Wind** | Luminosity | Snow |
|---|---|---|---|---|---|---|---|
| 1777566813 | 19.44° C | 40% | 1020.9 hPa | 0 mm | - | - | - |
| 1777565912 | 20° C | 39% | 1021 hPa | 0 mm | - | - | - |
| 1777565012 | 20° C | 38% | 1021 hPa | 0 mm | - | - | - |
| 1777564112 | 20° C | 37% | 1021.2 hPa | 0 mm | - | - | - |
| 1777563213 | 20° C | 39% | 1021.1 hPa | 0 mm | - | - | - |
| 1777562313 | 20.56° C | 38% | 1021.2 hPa | 0 mm | - | - | - |
| 1777561412 | 20° C | 38% | 1021.5 hPa | 0 mm | - | - | - |
| 1777560512 | 20° C | 38% | 1021.7 hPa | 0 mm | - | - | - |
| 1777559612 | 20.56° C | 39% | 1021.8 hPa | 0 mm | - | - | - |
| 1777558710 | 20° C | 39% | 1022 hPa | 0 mm | - | - | - |
| 1777557810 | 20° C | 38% | 1022.2 hPa | 0 mm | - | - | - |
| 1777556910 | 20.56° C | 39% | 1022.2 hPa | 0 mm | - | - | - |
| 1777556010 | 20° C | 38% | 1022.4 hPa | 0 mm | - | - | - |
| 1777555110 | 20° C | 38% | 1022.5 hPa | 0 mm | - | - | - |
| 1777554210 | 20.56° C | 38% | 1022.6 hPa | 0 mm | - | - | - |
| 1777553310 | 20° C | 37% | 1022.7 hPa | 0 mm | - | - | - |
| 1777552410 | 19.44° C | 35% | 1022.7 hPa | 0 mm | - | - | - |
| 1777551510 | 19.44° C | 35% | 1022.9 hPa | 0 mm | - | - | - |
| 1777550609 | 19.44° C | 38% | 1022.9 hPa | 0 mm | - | - | - |
| 1777549707 | 19.44° C | 38% | 1023.1 hPa | 0 mm | - | - | - |
| 1777548808 | 19.44° C | 40% | 1023.2 hPa | 0 mm | - | - | - |
| 1777547906 | 18.89° C | 41% | 1023.4 hPa | 0 mm | - | - | - |
| 1777547005 | 18.89° C | 44% | 1023.6 hPa | 0 mm | - | - | - |
| 1777546104 | 18.33° C | 46% | 1023.7 hPa | 0 mm | - | - | - |
| 1777545204 | 17.78° C | 48% | 1023.8 hPa | 0 mm | - | - | - |
* Rain latest hour (hover to see other rain measurements)
** Current wind speed in m/s (hover to see current wind gust speed)